Home > Weather > Manama > Past weeks

Flag for Bahrain Past Weather in Manama, Bahrain — Yesterday and Last 2 Weeks

Now
90 °F

Sunny.


Feels Like: 89 °F
Forecast: 86 / 93 °F
Wind: 29 mph from North

Location: Bahrain International Airport

Current Time: May 25, 2016 at 10:27:12 AM

Latest Report: May 25, 2016 at 10:00 AM


Visibility: 6 mi

Pressure: 29.74 "Hg

Humidity: 36%

Dew Point: 59 °F

Location of ManamaLocation

Past Weather in Manama — Graph

°F

Manama Temperature Yesterday

Maximum temperature yesterday: 104 °F (at 10:00 AM)
Minimum temperature yesterday: 84 °F (at 5:00 AM)
Average temperature yesterday: 94 °F

High & Low Weather Summary for the Past Weeks

 TemperatureHumidityPressure
High106 °F (May 12, 2:00 PM)94% (May 16, 9:00 PM)29.83 "Hg (May 16, 9:00 PM)
Low81 °F (May 17, 5:00 AM)11% (May 24, 2:00 PM)29.56 "Hg (May 19, 4:00 PM)
Average91 °F47%29.69 "Hg
* Reported May 10 9:00 AM — May 25 9:00 AM, Manama, Weather by CustomWeather, © 2016

Note: Actual official high and low records may vary slightly from our data, if they occured in-between our weather recording intervals... More about our weather records

Advertising

Manama Weather History for the Previous 24 Hours

Scroll right to see more
 ConditionsComfort  
Time TempWeatherWind HumidityBarometerVisibility
9:00 AM
Wed, May 25
90 °FSunny.28 mph38%29.71 "Hg6 mi
8:00 AM90 °FSunny.23 mph38%29.71 "Hg4 mi
7:00 AM88 °FSunny.23 mph43%29.71 "Hg4 mi
6:00 AM88 °FSunny.23 mph43%29.68 "Hg3 mi
5:00 AM86 °FSunny.22 mph52%29.68 "Hg2 mi
4:00 AM88 °FClear.20 mph52%29.65 "Hg3 mi
3:00 AM88 °FClear.20 mph52%29.62 "Hg3 mi
2:00 AM90 °FClear.18 mph43%29.65 "Hg5 mi
1:00 AM90 °FClear.16 mph52%29.65 "Hg10 mi
12:00 AM90 °FClear.5 mph33%29.62 "Hg10 mi
11:00 PM
Tue, May 24
90 °FClear.2 mph36%29.62 "Hg10 mi
10:00 PM90 °FPassing clouds.3 mph41%29.59 "HgN/A
9:00 PM88 °FPassing clouds.3 mph59%29.59 "HgN/A
8:00 PM90 °FClear.7 mph52%29.56 "Hg10 mi
7:00 PM93 °FClear.6 mph32%29.59 "Hg10 mi
6:00 PM97 °FSunny.7 mph20%29.56 "Hg10 mi
5:00 PM99 °FSunny.10 mph19%29.56 "Hg10 mi
4:00 PM100 °FSunny.9 mph15%29.59 "Hg10 mi
3:00 PM102 °FSunny.8 mph14%29.59 "Hg10 mi
2:00 PM102 °FSunny.8 mph11%29.62 "Hg10 mi
1:00 PM102 °FPassing clouds.8 mph14%29.62 "HgN/A
12:00 PM100 °FPassing clouds.8 mph20%29.65 "HgN/A
11:00 AM102 °FSunny.8 mph24%29.65 "Hg10 mi
10:00 AM104 °FPassing clouds.5 mph23%29.65 "HgN/A
Weather by CustomWeather, © 2016

See weather overviewHow to use our weather pages